Time[GMT],salinity[psu](20m),sigma_t[kg/m^3](20m),conductivity[msiemens/cm](20m),temperature[C](20m)
2006-09-12 13:00,32.386,24.381,38.162,12.94
2006-09-12 14:00,32.503,24.566,37.842,12.45
2006-09-12 15:00,32.460,24.531,37.806,12.46
2006-09-12 16:00,32.473,24.531,37.864,12.51
2006-09-12 17:00,32.495,24.613,37.580,12.17
2006-09-12 18:00,32.468,24.521,37.886,12.54
2006-09-12 19:00,32.457,24.496,37.956,12.63
2006-09-12 20:00,32.456,24.515,37.865,12.53
2006-09-12 21:00,32.382,24.421,37.959,12.72
2006-09-12 22:00,32.425,24.480,37.877,12.58
2006-09-12 23:00,32.379,24.420,37.947,12.71
2006-09-13 00:00,32.360,24.404,37.936,12.72
2006-09-13 01:00,32.456,24.443,38.200,12.90
2006-09-13 02:00,32.421,24.476,37.882,12.59
2006-09-13 03:00,32.456,24.529,37.792,12.45
2006-09-13 04:00,32.472,24.561,37.719,12.35
2006-09-13 05:00,32.525,24.628,37.647,12.21
2006-09-13 06:00,32.572,24.690,37.579,12.08
2006-09-13 07:00,32.486,24.537,37.896,12.53
2006-09-13 08:00,32.396,24.460,37.838,12.57
2006-09-13 09:00,32.449,24.532,37.749,12.41
2006-09-13 10:00,32.601,24.777,37.293,11.73
2006-09-13 11:00,32.379,24.453,37.793,12.54
2006-09-13 12:00,32.457,24.471,38.074,12.76
2006-09-13 13:00,32.452,24.478,38.014,12.70
2006-09-13 14:00,32.470,24.529,37.861,12.51
2006-09-13 15:00,32.474,24.529,37.884,12.53
2006-09-13 16:00,32.457,24.507,37.902,12.57
2006-09-13 17:00,32.508,24.655,37.440,12.00
2006-09-13 18:00,32.539,24.732,37.211,11.71
2006-09-13 19:00,32.448,24.489,37.947,12.63
2006-09-13 20:00,32.461,24.543,37.752,12.40
2006-09-13 21:00,32.533,24.710,37.295,11.81
2006-09-13 22:00,32.509,24.738,37.036,11.55
2006-09-13 23:00,32.435,24.549,37.599,12.26
2006-09-14 00:00,32.463,24.423,38.325,13.03
2006-09-14 01:00,32.430,24.461,37.991,12.70
2006-09-14 02:00,32.433,24.555,37.561,12.22
2006-09-14 03:00,32.422,24.505,37.748,12.44
2006-09-14 04:00,32.438,24.531,37.701,12.37
2006-09-14 05:00,32.428,24.516,37.727,12.41
2006-09-14 06:00,32.474,24.606,37.513,12.12
2006-09-14 07:00,32.455,24.582,37.539,12.17
2006-09-14 08:00,32.487,24.637,37.428,12.01
2006-09-14 09:00,32.470,24.664,37.212,11.79
2006-09-14 10:00,32.474,24.567,37.703,12.33
2006-09-14 11:00,32.505,24.706,37.176,11.71
2006-09-14 12:00,32.508,24.629,37.567,12.14
2006-09-14 13:00,32.508,24.485,38.246,12.89
2006-09-14 14:00,32.506,24.536,37.999,12.62
2006-09-14 15:00,32.512,24.571,37.860,12.46
2006-09-14 16:00,32.513,24.615,37.653,12.23
2006-09-14 17:00,32.505,24.627,37.564,12.14
2006-09-14 18:00,32.484,24.656,37.316,11.89
2006-09-14 19:00,32.525,24.627,37.657,12.22
2006-09-14 20:00,32.525,24.630,37.638,12.20
2006-09-14 21:00,32.537,24.624,37.723,12.28
2006-09-14 22:00,32.545,24.618,37.795,12.35
2006-09-14 23:00,32.565,24.618,37.888,12.43
2006-09-15 00:00,32.590,24.647,37.869,12.38
2006-09-15 01:00,32.609,24.664,37.880,12.37
2006-09-15 02:00,32.615,24.670,37.877,12.36
2006-09-15 03:00,32.630,24.693,37.838,12.30
2006-09-15 04:00,32.635,24.772,37.481,11.90
2006-09-15 05:00,32.660,24.728,37.815,12.24
2006-09-15 06:00,32.706,24.784,37.763,12.13
2006-09-15 07:00,32.677,24.735,37.860,12.27
2006-09-15 08:00,32.724,24.811,37.718,12.06
2006-09-15 09:00,32.730,24.803,37.788,12.13
2006-09-15 10:00,32.729,24.806,37.769,12.11
2006-09-15 11:00,32.750,24.827,37.763,12.08
2006-09-15 12:00,32.734,24.808,37.783,12.12
2006-09-15 13:00,32.732,24.810,37.763,12.10
2006-09-15 14:00,32.732,24.825,37.690,12.02
2006-09-15 15:00,32.709,24.803,37.684,12.04
2006-09-15 16:00,32.721,24.815,37.688,12.03
2006-09-15 17:00,32.703,24.804,37.651,12.01
2006-09-15 18:00,32.707,24.833,37.528,11.87
2006-09-15 19:00,32.686,24.819,37.498,11.86
2006-09-15 20:00,32.681,24.826,37.438,11.80
2006-09-15 21:00,32.672,24.819,37.429,11.80
2006-09-15 22:00,32.641,24.752,37.605,12.03
2006-09-15 23:00,32.628,24.735,37.628,12.07
2006-09-16 00:00,32.583,24.679,37.681,12.18
2006-09-16 01:00,32.606,24.704,37.668,12.14
2006-09-16 02:00,32.623,24.734,37.604,12.05
2006-09-16 03:00,32.659,24.767,37.624,12.03
2006-09-16 04:00,32.667,24.771,37.641,12.04
2006-09-16 05:00,32.658,24.762,37.641,12.05
2006-09-16 06:00,32.661,24.772,37.608,12.01
2006-09-16 07:00,32.669,24.782,37.598,11.99
2006-09-16 08:00,32.676,24.793,37.578,11.96
2006-09-16 09:00,32.677,24.797,37.561,11.94
2006-09-16 11:00,32.674,24.799,37.540,11.92
2006-09-16 12:00,32.717,24.838,37.557,11.89
2006-09-16 13:00,32.666,24.783,37.577,11.97
2006-09-16 14:00,32.646,24.764,37.574,11.99
2006-09-16 15:00,32.671,24.791,37.564,11.95
2006-09-16 16:00,32.626,24.746,37.562,12.00
2006-09-16 17:00,32.626,24.750,37.544,11.98
2006-09-16 18:00,32.619,24.731,37.600,12.05
2006-09-16 19:00,32.687,24.822,37.490,11.85
2006-09-16 20:00,32.677,24.845,37.326,11.68
2006-09-16 21:00,32.691,24.839,37.421,11.77
2006-09-16 22:00,32.703,24.865,37.352,11.68
2006-09-16 23:00,32.830,24.886,37.864,12.10
2006-09-17 00:00,32.743,24.913,37.312,11.59
2006-09-17 01:00,32.794,24.889,37.672,11.93
2006-09-17 02:00,32.805,24.887,37.738,11.99
2006-09-17 03:00,32.751,24.813,37.837,12.16
2006-09-17 04:00,32.735,24.780,37.920,12.27
2006-09-17 05:00,32.760,24.861,37.646,11.94
2006-09-17 06:00,32.684,24.754,37.804,12.20
2006-09-17 07:00,32.736,24.768,37.985,12.34
2006-09-17 08:00,32.814,24.809,38.158,12.44
2006-09-17 09:00,32.851,24.849,38.141,12.38
2006-09-17 10:00,32.832,24.829,38.149,12.41
2006-09-17 11:00,32.796,24.835,37.947,12.23
2006-09-17 12:00,32.664,24.781,37.574,11.97
2006-09-17 13:00,32.657,24.793,37.486,11.88
2006-09-17 14:00,32.649,24.783,37.496,11.90
2006-09-17 15:00,32.606,24.757,37.415,11.86
2006-09-17 16:00,32.621,24.746,37.539,11.98
2006-09-17 17:00,32.622,24.749,37.531,11.97
2006-09-17 18:00,32.614,24.750,37.487,11.93
2006-09-17 19:00,32.617,24.756,37.472,11.91
2006-09-17 20:00,32.622,24.773,37.414,11.84
2006-09-17 21:00,32.625,24.777,37.408,11.83
2006-09-17 22:00,32.608,24.753,37.444,11.89
2006-09-17 23:00,32.607,24.739,37.507,11.96
2006-09-18 00:00,32.596,24.714,37.577,12.05
2006-09-18 01:00,32.589,24.708,37.569,12.05
2006-09-18 02:00,32.573,24.687,37.598,12.10
2006-09-18 03:00,32.565,24.631,37.825,12.36
2006-09-18 04:00,32.550,24.467,38.527,13.15
2006-09-18 05:00,32.581,24.576,38.159,12.71
2006-09-18 06:00,32.587,24.646,37.857,12.37
2006-09-18 07:00,32.592,24.694,37.654,12.14
2006-09-18 08:00,32.611,24.720,37.619,12.08
2006-09-18 09:00,32.605,24.737,37.504,11.96
2006-09-18 10:00,32.632,24.788,37.388,11.80
2006-09-18 11:00,32.631,24.776,37.441,11.86
2006-09-18 12:00,32.612,24.784,37.313,11.74
2006-09-18 13:00,32.610,24.786,37.293,11.72
2006-09-18 14:00,32.606,24.764,37.379,11.82
2006-09-18 15:00,32.592,24.748,37.392,11.85
2006-09-18 16:00,32.581,24.730,37.425,11.90
2006-09-18 17:00,32.587,24.727,37.468,11.94
2006-09-18 18:00,32.596,24.716,37.568,12.04
2006-09-18 19:00,32.604,24.736,37.503,11.96
2006-09-18 20:00,32.609,24.669,37.853,12.34
2006-09-18 21:00,32.603,24.632,38.001,12.51
2006-09-18 22:00,32.630,24.682,37.893,12.36
2006-09-18 23:00,32.641,24.772,37.505,11.92
2006-09-19 00:00,32.637,24.783,37.438,11.85
2006-09-19 01:00,32.638,24.778,37.466,11.88
2006-09-19 02:00,32.648,24.780,37.504,11.91
2006-09-19 03:00,32.621,24.775,37.394,11.82
2006-09-19 05:00,32.632,24.689,37.868,12.33
2006-09-19 06:00,32.623,24.720,37.677,12.13
2006-09-19 07:00,32.822,24.809,38.193,12.47
2006-09-19 08:00,32.572,24.624,37.896,12.43
2006-09-19 09:00,32.635,24.686,37.898,12.36
2006-09-19 10:00,32.617,24.694,37.770,12.24
2006-09-19 11:00,32.716,24.762,37.919,12.29
2006-09-19 12:00,32.601,24.724,37.555,12.02
2006-09-19 13:00,32.597,24.733,37.487,11.95
2006-09-19 14:00,32.614,24.754,37.469,11.91
2006-09-19 15:00,32.621,24.775,37.394,11.82
2006-09-19 16:00,32.636,24.793,37.383,11.79
2006-09-19 17:00,32.639,24.769,37.512,11.93
2006-09-19 18:00,32.726,24.754,38.002,12.37
2006-09-19 19:00,32.624,24.734,37.615,12.06
2006-09-19 20:00,32.684,24.653,38.286,12.73
2006-09-19 21:00,32.630,24.609,38.238,12.74
2006-09-19 22:00,32.668,24.694,38.014,12.45
2006-09-19 23:00,32.664,24.791,37.529,11.92
2006-09-20 00:00,32.633,24.765,37.506,11.93
2006-09-20 01:00,32.640,24.796,37.387,11.79
2006-09-20 02:00,32.656,24.819,37.349,11.73
2006-09-20 03:00,32.643,24.798,37.390,11.79
2006-09-20 04:00,32.648,24.739,37.703,12.13
2006-09-20 05:00,32.623,24.738,37.586,12.03
2006-09-20 06:00,32.743,24.735,38.174,12.54
2006-09-20 07:00,32.683,24.642,38.330,12.78
2006-09-20 08:00,32.778,24.737,38.330,12.67
2006-09-20 09:00,32.678,24.605,38.480,12.95
2006-09-20 10:00,32.714,24.674,38.326,12.74
2006-09-20 11:00,32.690,24.677,38.201,12.63
2006-09-20 13:00,32.696,24.849,37.399,11.74
2006-09-20 14:00,32.632,24.785,37.406,11.82
2006-09-20 15:00,32.627,24.725,37.672,12.12
2006-09-20 16:00,32.624,24.696,37.796,12.26
2006-09-20 17:00,32.821,24.813,38.174,12.45
2006-09-20 18:00,32.764,24.732,38.288,12.64
2006-09-20 20:00,32.734,24.660,38.484,12.89
2006-09-20 21:00,32.756,24.694,38.425,12.80
2006-09-20 22:00,32.673,24.588,38.539,13.02
2006-09-20 23:00,32.626,24.584,38.334,12.85
2006-09-21 00:00,32.688,24.707,38.044,12.46
2006-09-21 01:00,32.714,24.769,37.871,12.24
2006-09-21 02:00,32.648,24.760,37.603,12.02
2006-09-21 03:00,32.611,24.673,37.846,12.33
2006-09-21 04:00,32.620,24.665,37.928,12.41
2006-09-21 05:00,32.616,24.682,37.824,12.30
2006-09-21 06:00,32.617,24.636,38.052,12.55
2006-09-21 07:00,32.612,24.628,38.065,12.57
2006-09-21 08:00,32.606,24.602,38.158,12.68
2006-09-21 09:00,32.701,24.739,37.958,12.35
2006-09-21 10:00,32.687,24.736,37.907,12.31
2006-09-21 11:00,32.695,24.738,37.933,12.33
2006-09-21 12:00,32.692,24.726,37.975,12.38
2006-09-21 13:00,32.707,24.751,37.928,12.31
2006-09-21 14:00,32.679,24.763,37.735,12.13
2006-09-21 15:00,32.608,24.584,38.251,12.78
2006-09-21 16:00,32.630,24.647,38.056,12.54
2006-09-21 17:00,32.495,24.361,38.760,13.47
2006-09-21 18:00,32.498,24.343,38.854,13.57
2006-09-21 19:00,32.368,24.198,38.915,13.79
2006-09-21 20:00,32.439,24.309,38.736,13.51
2006-09-21 21:00,32.721,24.741,38.042,12.42
2006-09-21 23:00,32.600,24.628,38.007,12.52
2006-09-22 00:00,32.643,24.714,37.797,12.24
2006-09-22 01:00,32.596,24.603,38.102,12.63
2006-09-22 02:00,32.427,24.282,38.805,13.60
2006-09-22 03:00,32.473,24.331,38.791,13.53
2006-09-22 04:00,32.435,24.324,38.650,13.42
2006-09-22 05:00,32.453,24.386,38.451,13.18
2006-09-22 06:00,32.247,24.186,38.412,13.38
2006-09-22 07:00,32.388,24.437,37.911,12.66
2006-09-22 08:00,32.424,24.495,37.804,12.50
2006-09-22 09:00,32.632,24.720,37.723,12.17
2006-09-22 10:00,32.630,24.674,37.929,12.40
2006-09-22 11:00,32.644,24.692,37.907,12.36
2006-09-22 12:00,32.660,24.743,37.743,12.16
2006-09-22 13:00,32.650,24.735,37.732,12.16
2006-09-22 14:00,32.638,24.700,37.847,12.30
2006-09-22 15:00,32.685,24.794,37.614,11.99
2006-09-22 16:00,32.459,24.435,38.248,12.95
2006-09-22 17:00,32.354,24.339,38.210,13.03
2006-09-22 18:00,32.354,24.309,38.345,13.18
2006-09-22 19:00,32.235,24.099,38.753,13.77
2006-09-22 21:00,32.463,24.479,38.062,12.74
2006-09-22 22:00,32.290,24.186,38.613,13.55
2006-09-22 23:00,32.532,24.500,38.289,12.91
2006-09-23 00:00,32.615,24.689,37.786,12.26
2006-09-23 01:00,32.603,24.649,37.919,12.42
2006-09-23 02:00,32.550,24.576,38.018,12.59
2006-09-23 03:00,32.467,24.538,37.804,12.45
2006-09-23 04:00,32.558,24.616,37.863,12.41
2006-09-23 05:00,32.451,24.584,37.507,12.14
2006-09-23 06:00,32.446,24.575,37.529,12.17
2006-09-23 07:00,32.398,24.511,37.605,12.31
2006-09-23 08:00,32.394,24.495,37.664,12.38
2006-09-23 09:00,32.416,24.523,37.633,12.32
2006-09-23 10:00,32.411,24.517,37.637,12.33
2006-09-23 11:00,32.408,24.515,37.634,12.33
2006-09-23 12:00,32.413,24.523,37.621,12.31
2006-09-23 13:00,32.410,24.521,37.618,12.31
2006-09-23 14:00,32.373,24.442,37.814,12.57
2006-09-23 15:00,32.335,24.394,37.864,12.67
2006-09-23 16:00,32.293,24.305,38.082,12.96
2006-09-23 17:00,32.286,24.299,38.074,12.96
2006-09-23 18:00,32.356,24.418,37.850,12.63
2006-09-23 19:00,32.345,24.394,37.911,12.71
2006-09-23 20:00,32.341,24.379,37.961,12.77
2006-09-23 21:00,32.388,24.458,37.812,12.55
2006-09-23 22:00,32.404,24.497,37.702,12.41
2006-09-23 23:00,32.514,24.630,37.591,12.16
2006-09-24 00:00,32.540,24.648,37.627,12.17
2006-09-24 01:00,32.572,24.690,37.579,12.08
2006-09-24 02:00,32.570,24.690,37.568,12.07
2006-09-24 03:00,32.498,24.605,37.628,12.22
2006-09-24 04:00,32.480,24.584,37.646,12.26
2006-09-24 05:00,32.435,24.530,37.689,12.36
2006-09-24 06:00,32.417,24.509,37.707,12.40
2006-09-24 07:00,32.450,24.548,37.678,12.33
2006-09-24 08:00,32.398,24.485,37.732,12.45
2006-09-24 09:00,32.371,24.447,37.785,12.54
2006-09-24 10:00,32.425,24.515,37.715,12.40
2006-09-24 11:00,32.420,24.513,37.701,12.39
2006-09-24 12:00,32.401,24.489,37.726,12.44
2006-09-24 13:00,32.399,24.488,37.724,12.44
2006-09-24 14:00,32.418,24.512,37.699,12.39
2006-09-24 15:00,32.434,24.524,37.715,12.39
2006-09-24 17:00,32.428,24.537,37.628,12.30
2006-09-24 18:00,32.367,24.441,37.789,12.55
2006-09-24 19:00,32.452,24.528,37.779,12.44
2006-09-24 20:00,32.462,24.536,37.790,12.44
2006-09-24 21:00,32.454,24.551,37.682,12.33
2006-09-24 22:00,32.543,24.677,37.504,12.03
2006-09-24 23:00,32.561,24.703,37.459,11.96
2006-09-25 00:00,32.492,24.609,37.586,12.18
2006-09-25 01:00,32.498,24.615,37.583,12.17
2006-09-25 02:00,32.500,24.622,37.558,12.14
2006-09-25 03:00,32.483,24.592,37.622,12.23
2006-09-25 04:00,32.474,24.588,37.604,12.22
2006-09-25 05:00,32.488,24.606,37.582,12.18
2006-09-25 06:00,32.545,24.676,37.515,12.04
2006-09-25 07:00,32.602,24.782,37.276,11.71
2006-09-25 08:00,32.535,24.670,37.495,12.03
2006-09-25 09:00,32.499,24.616,37.584,12.17
2006-09-25 10:00,32.506,24.625,37.574,12.15
2006-09-25 11:00,32.562,24.704,37.460,11.96
2006-09-25 12:00,32.494,24.610,37.588,12.18
2006-09-25 13:00,32.501,24.621,37.568,12.15
2006-09-25 14:00,32.513,24.633,37.572,12.14
2006-09-25 15:00,32.472,24.578,37.637,12.26
2006-09-25 16:00,32.492,24.607,37.595,12.19
2006-09-25 17:00,32.534,24.673,37.476,12.01
2006-09-25 18:00,32.527,24.670,37.460,12.00
2006-09-25 19:00,32.553,24.703,37.424,11.93
2006-09-25 20:00,32.292,24.275,38.216,13.11
2006-09-25 21:00,32.503,24.624,37.561,12.14
2006-09-25 22:00,32.459,24.574,37.597,12.23
2006-09-25 23:00,32.456,24.571,37.594,12.23
2006-09-26 00:00,32.499,24.594,37.693,12.29
2006-09-26 01:00,32.582,24.681,37.671,12.17
2006-09-26 02:00,32.579,24.702,37.550,12.04
2006-09-26 03:00,32.598,24.802,37.154,11.58
2006-09-26 04:00,32.615,24.791,37.289,11.71
2006-09-26 05:00,32.643,24.710,37.815,12.26
2006-09-26 06:00,32.672,24.788,37.583,11.97
2006-09-26 07:00,32.652,24.712,37.852,12.29
2006-09-26 08:00,32.476,24.503,38.012,12.67
2006-09-26 09:00,32.535,24.644,37.622,12.17
2006-09-26 10:00,32.511,24.641,37.525,12.09
2006-09-26 11:00,32.485,24.613,37.534,12.13
2006-09-26 12:00,32.524,24.667,37.457,12.00
2006-09-26 13:00,32.562,24.663,37.659,12.18
2006-09-26 14:00,32.625,24.672,37.915,12.39
2006-09-26 15:00,32.615,24.676,37.850,12.33
2006-09-26 16:00,32.645,24.705,37.854,12.30
2006-09-26 17:00,32.626,24.682,37.870,12.34
2006-09-26 18:00,32.657,24.735,37.767,12.19
2006-09-26 19:00,32.651,24.739,37.715,12.14
2006-09-26 20:00,32.710,24.808,37.667,12.02
2006-09-26 21:00,32.701,24.793,37.694,12.06
2006-09-26 22:00,32.702,24.783,37.750,12.12
2006-09-26 23:00,32.695,24.768,37.788,12.17
2006-09-27 00:00,32.650,24.834,37.253,11.63
2006-09-27 01:00,32.777,24.915,37.464,11.72
2006-09-27 02:00,32.665,24.737,37.793,12.21
2006-09-27 03:00,32.666,24.721,37.876,12.30
2006-09-27 04:00,32.347,24.316,38.284,13.12
2006-09-27 05:00,32.553,24.589,37.966,12.53
2006-09-27 06:00,32.688,24.779,37.699,12.08
2006-09-27 07:00,32.600,24.639,37.952,12.46
2006-09-27 08:00,32.497,24.498,38.134,12.78
2006-09-27 09:00,32.645,24.716,37.799,12.24
2006-09-27 10:00,32.648,24.724,37.775,12.21
2006-09-27 11:00,32.701,24.784,37.740,12.11
2006-09-27 12:00,32.713,24.797,37.734,12.09
2006-09-27 13:00,32.706,24.790,37.736,12.10
2006-09-27 14:00,32.705,24.789,37.735,12.10
2006-09-27 15:00,32.728,24.816,37.713,12.05
2006-09-27 16:00,32.710,24.802,37.695,12.05
2006-09-27 17:00,32.725,24.820,37.683,12.02
2006-09-27 18:00,32.709,24.790,37.748,12.11
2006-09-27 19:00,32.702,24.783,37.750,12.12
2006-09-27 20:00,32.544,24.594,37.903,12.47
2006-09-27 21:00,32.503,24.537,37.977,12.60
2006-09-27 22:00,32.466,24.485,38.047,12.72
2006-09-27 23:00,32.442,24.455,38.076,12.78
2006-09-28 00:00,32.534,24.575,37.947,12.53
2006-09-28 01:00,32.457,24.475,38.056,12.74
2006-09-28 02:00,32.551,24.603,37.892,12.45
2006-09-28 03:00,32.551,24.598,37.919,12.48
2006-09-28 04:00,32.617,24.687,37.807,12.28
2006-09-28 05:00,32.639,24.719,37.757,12.20
2006-09-28 06:00,32.732,24.845,37.590,11.91
2006-09-28 07:00,32.723,24.836,37.590,11.92
2006-09-28 08:00,32.733,24.848,37.582,11.90
2006-09-28 09:00,32.694,24.801,37.624,11.99
2006-09-28 10:00,32.598,24.662,37.832,12.33
2006-09-28 11:00,32.629,24.726,37.674,12.12
2006-09-28 12:00,32.602,24.671,37.809,12.30
2006-09-28 13:00,32.632,24.710,37.768,12.22
2006-09-28 14:00,32.571,24.628,37.867,12.40
2006-09-28 15:00,32.593,24.657,37.836,12.34
2006-09-28 16:00,32.556,24.611,37.879,12.43
2006-09-28 17:00,32.507,24.558,37.900,12.51
2006-09-28 18:00,32.503,24.573,37.805,12.41
2006-09-28 19:00,32.609,24.700,37.708,12.18
2006-09-28 20:00,32.658,24.760,37.650,12.06
2006-09-28 21:00,32.688,24.794,37.626,12.00
2006-09-28 22:00,32.700,24.808,37.621,11.98
2006-09-28 23:00,32.720,24.828,37.614,11.95
2006-09-29 00:00,32.560,24.624,37.838,12.38
2006-09-29 01:00,32.675,24.764,37.713,12.11
2006-09-29 02:00,32.592,24.662,37.808,12.31
2006-09-29 03:00,32.626,24.707,37.753,12.21
2006-09-29 04:00,32.668,24.758,37.705,12.11
2006-09-29 05:00,32.708,24.812,37.638,11.99
2006-09-29 06:00,32.724,24.839,37.582,11.91
2006-09-29 07:00,32.623,24.686,37.840,12.31
2006-09-29 08:00,32.619,24.692,37.791,12.26
2006-09-29 09:00,32.569,24.663,37.693,12.21
2006-09-29 10:00,32.122,24.125,38.116,13.20
2006-09-29 11:00,32.481,24.542,37.855,12.49
2006-09-29 12:00,32.582,24.645,37.843,12.36
2006-09-29 13:00,32.657,24.748,37.703,12.12
2006-09-29 14:00,32.633,24.731,37.669,12.11
2006-09-29 15:00,32.627,24.719,37.699,12.15
2006-09-29 16:00,32.621,24.728,37.630,12.08
2006-09-29 17:00,32.656,24.759,37.648,12.06
2006-09-29 18:00,32.649,24.736,37.722,12.15
2006-09-29 19:00,32.672,24.767,37.682,12.08
2006-09-29 20:00,32.675,24.770,37.686,12.08
2006-09-29 21:00,32.578,24.670,37.703,12.21
2006-09-29 22:00,32.506,24.583,37.772,12.37
2006-09-29 23:00,32.494,24.578,37.742,12.35
2006-09-30 00:00,32.531,24.630,37.672,12.23
2006-09-30 01:00,32.514,24.607,37.699,12.28
2006-09-30 02:00,32.540,24.631,37.708,12.26
2006-09-30 03:00,32.522,24.613,37.708,12.28
2006-09-30 04:00,32.546,24.673,37.534,12.06
2006-09-30 05:00,32.650,24.774,37.542,11.95
2006-09-30 06:00,32.645,24.787,37.455,11.86
2006-09-30 07:00,32.634,24.810,37.290,11.69
2006-09-30 08:00,32.644,24.858,37.102,11.47
2006-09-30 09:00,32.645,24.819,37.302,11.69
2006-09-30 10:00,32.628,24.811,37.257,11.66
2006-09-30 11:00,32.639,24.749,37.612,12.04
2006-09-30 12:00,32.633,24.735,37.651,12.09
2006-09-30 13:00,32.582,24.681,37.671,12.17
2006-09-30 14:00,32.445,24.537,37.709,12.37
2006-09-30 15:00,32.574,24.666,37.698,12.21
2006-09-30 16:00,32.521,24.652,37.517,12.07
2006-09-30 17:00,32.558,24.692,37.501,12.01
2006-09-30 18:00,32.496,24.629,37.509,12.09
2006-09-30 19:00,32.579,24.721,37.460,11.94
2006-09-30 20:00,32.571,24.713,37.460,11.95
2006-09-30 21:00,32.612,24.734,37.557,12.01
2006-09-30 22:00,32.647,24.761,37.593,12.01
2006-10-01 00:00,32.635,24.789,37.400,11.81
2006-10-01 01:00,32.678,24.831,37.399,11.76
2006-10-01 02:00,32.565,24.723,37.382,11.87
2006-10-01 03:00,32.579,24.737,37.378,11.85
2006-10-01 04:00,32.552,24.713,37.369,11.87
2006-10-01 05:00,32.574,24.732,37.382,11.86
2006-10-01 06:00,32.550,24.715,37.348,11.85
2006-10-01 07:00,32.565,24.719,37.400,11.89
2006-10-01 08:00,32.534,24.647,37.603,12.15
2006-10-01 09:00,32.540,24.667,37.537,12.07
2006-10-01 10:00,32.555,24.691,37.489,12.00
2006-10-01 11:00,32.530,24.681,37.418,11.95
2006-10-01 12:00,32.520,24.645,37.543,12.10
2006-10-01 13:00,32.507,24.672,37.349,11.90
2006-10-01 14:00,32.536,24.678,37.460,11.99
2006-10-01 15:00,32.500,24.671,37.324,11.88
2006-10-01 16:00,32.507,24.665,37.385,11.94
2006-10-01 17:00,32.524,24.686,37.367,11.90
2006-10-01 18:00,32.536,24.712,37.298,11.81
2006-10-01 19:00,32.573,24.750,37.291,11.76
2006-10-01 20:00,32.587,24.762,37.296,11.75
2006-10-01 21:00,32.587,24.764,37.287,11.74
2006-10-01 22:00,32.581,24.759,37.281,11.74
2006-10-01 23:00,32.550,24.724,37.303,11.80
2006-10-02 00:00,32.495,24.624,37.526,12.11
2006-10-02 01:00,32.300,24.298,38.143,13.02
2006-10-02 02:00,32.323,24.303,38.231,13.09
2006-10-02 03:00,32.390,24.406,38.067,12.83
2006-10-02 04:00,32.330,24.310,38.229,13.08
2006-10-02 05:00,32.330,24.308,38.238,13.09
2006-10-02 06:00,32.339,24.317,38.239,13.08
2006-10-02 07:00,32.388,24.467,37.766,12.50
2006-10-02 08:00,32.450,24.536,37.732,12.39
2006-10-02 09:00,32.544,24.701,37.387,11.90
2006-10-02 10:00,32.570,24.731,37.369,11.85
2006-10-02 11:00,32.458,24.552,37.695,12.34
2006-10-02 12:00,32.508,24.662,37.404,11.96
2006-10-02 13:00,32.666,24.900,36.998,11.33
2006-10-02 14:00,32.517,24.682,37.350,11.89
2006-10-02 15:00,32.419,24.542,37.555,12.23
2006-10-02 16:00,32.397,24.396,38.147,12.91
2006-10-02 17:00,32.459,24.484,38.022,12.70
2006-10-02 18:00,32.522,24.580,37.861,12.45
2006-10-02 19:00,32.634,24.598,38.306,12.81
2006-10-02 20:00,32.643,24.603,38.324,12.82
2006-10-02 21:00,32.629,24.580,38.364,12.88
2006-10-02 22:00,32.647,24.594,38.383,12.88
2006-10-02 23:00,32.609,24.573,38.307,12.84
2006-10-03 00:00,32.577,24.583,38.109,12.66
2006-10-03 01:00,32.526,24.482,38.347,12.98
2006-10-03 02:00,32.483,24.444,38.319,13.00
2006-10-03 03:00,32.452,24.428,38.250,12.96
2006-10-03 04:00,32.450,24.427,38.248,12.96
2006-10-03 05:00,32.473,24.456,38.218,12.90
2006-10-03 06:00,32.462,24.441,38.233,12.93
2006-10-03 07:00,32.532,24.480,38.380,13.01
2006-10-03 08:00,32.558,24.492,38.444,13.05
2006-10-03 09:00,32.627,24.662,37.971,12.45
2006-10-03 10:00,32.718,24.738,38.039,12.42
2006-10-03 11:00,32.782,24.920,37.470,11.72
2006-10-03 12:00,32.657,24.689,37.984,12.43
2006-10-03 13:00,32.660,24.583,38.497,12.99
2006-10-03 14:00,32.705,24.634,38.472,12.91
2006-10-03 15:00,32.665,24.587,38.503,12.99
2006-10-03 16:00,32.574,24.520,38.388,12.97
2006-10-03 17:00,32.545,24.484,38.421,13.04
2006-10-03 19:00,32.667,24.565,38.614,13.11
2006-10-03 20:00,32.688,24.584,38.628,13.10
2006-10-03 21:00,32.700,24.610,38.558,13.01
2006-10-03 22:00,32.672,24.699,38.009,12.44
2006-10-03 23:00,32.705,24.672,38.289,12.71
2006-10-04 00:00,32.680,24.611,38.464,12.93
2006-10-04 01:00,32.581,24.528,38.387,12.96
2006-10-04 02:00,32.589,24.544,38.349,12.91
2006-10-04 03:00,32.653,24.720,37.817,12.25
2006-10-04 04:00,32.666,24.663,38.148,12.60
2006-10-04 05:00,32.621,24.571,38.374,12.90
2006-10-04 06:00,32.663,24.571,38.564,13.06
2006-10-04 07:00,32.661,24.568,38.571,13.07
2006-10-04 08:00,32.689,24.600,38.556,13.02
2006-10-04 09:00,32.720,24.719,38.141,12.53
2006-10-04 10:00,32.710,24.727,38.058,12.45
2006-10-04 11:00,32.737,24.768,37.986,12.34
2006-10-04 12:00,32.695,24.673,38.243,12.67
2006-10-04 13:00,32.663,24.573,38.555,13.05
2006-10-04 14:00,32.637,24.546,38.564,13.09
2006-10-04 15:00,32.700,24.665,38.302,12.73
2006-10-04 16:00,32.701,24.689,38.194,12.61
2006-10-04 17:00,32.649,24.532,38.687,13.21
2006-10-04 18:00,32.596,24.588,38.175,12.71
2006-10-04 19:00,32.602,24.562,38.327,12.87
2006-10-04 20:00,32.630,24.628,38.147,12.64
2006-10-04 21:00,32.683,24.657,38.257,12.70
2006-10-04 22:00,32.698,24.729,37.991,12.39
2006-10-04 23:00,32.726,24.758,37.984,12.35
2006-10-05 00:00,32.695,24.715,38.042,12.45